When you browse on this site, cookies collect data to enhance your experience and personalize the content and advertising you see.
Visit our Privacy Policy to learn more. By continuing to use the site, you agree to this use of cookies and data.
  • In Hungary
  • List of Countries
  • For 7 days
  • Water Temperature
  • Satellite Maps
  • Weather Map
  • News
  • Weather Widgets
  • user-avatar
    Login

    Hourly Weather Assisi

    Today, 12 December, Wednesday

    Time Temperature Precipitation Wind Pressure Humidity
    00:00 +3°C° 0 mm 1 mps 730 mmHg 69%
    01:00 +3°C° 0 mm 1 mps 730 mmHg 66%
    02:00 +3°C° 0 mm 1 mps 730 mmHg 65%
    03:00 +3°C° 0 mm 1 mps 729 mmHg 65%
    04:00 +2°C° 0 mm 1 mps 729 mmHg 64%
    05:00 +2°C° 0 mm 1 mps 729 mmHg 62%
    06:00 +2°C° 0 mm 1 mps 729 mmHg 60%
    07:00 +2°C° 0 mm 1 mps 729 mmHg 59%
    08:00 +4°C° 0 mm 1 mps 730 mmHg 53%
    09:00 +5°C° 0 mm 1 mps 730 mmHg 47%
    10:00 +7°C° 0 mm 1 mps 730 mmHg 41%
    11:00 +7°C° 0 mm 1 mps 730 mmHg 38%
    12:00 +8°C° 0 mm 1 mps 730 mmHg 34%
    13:00 +9°C° 0 mm 1 mps 730 mmHg 32%
    14:00 +9°C° 0 mm 1 mps 730 mmHg 36%
    15:00 +8°C° 0 mm 1 mps 730 mmHg 41%
    16:00 +7°C° 0 mm 1 mps 729 mmHg 45%
    17:00 +6°C° 0 mm 1 mps 729 mmHg 48%
    18:00 +5°C° 0 mm 1 mps 729 mmHg 50%
    19:00 +4°C° 0 mm 1 mps 729 mmHg 53%
    20:00 +4°C° 0 mm 1 mps 729 mmHg 55%
    21:00 +4°C° 0 mm 1 mps 728 mmHg 57%
    22:00 +4°C° 0 mm 1 mps 728 mmHg 59%
    23:00 +4°C° 0.1 mm 1 mps 728 mmHg 61%

    Tomorrow, 13 December, Thursday

    Time Temperature Precipitation Wind Pressure Humidity
    00:00 +4°C° 0.1 mm 1 mps 728 mmHg 62%
    01:00 +4°C° 0.1 mm 1 mps 728 mmHg 64%
    02:00 +4°C° 0.3 mm 1 mps 727 mmHg 66%
    03:00 +4°C° 0.3 mm 1 mps 727 mmHg 67%
    04:00 +4°C° 0.3 mm 1 mps 726 mmHg 69%
    05:00 +4°C° 0.4 mm 1 mps 726 mmHg 71%
    06:00 +4°C° 0.4 mm 1 mps 725 mmHg 74%
    07:00 +4°C° 0.4 mm 1 mps 725 mmHg 76%
    08:00 +4°C° 0.5 mm 1 mps 725 mmHg 77%
    09:00 +5°C° 0.5 mm 1 mps 725 mmHg 78%
    10:00 +5°C° 0.5 mm 1 mps 725 mmHg 80%
    11:00 +5°C° 0.3 mm 1 mps 725 mmHg 80%
    12:00 +6°C° 0.3 mm 1 mps 725 mmHg 79%
    13:00 +6°C° 0.3 mm 1 mps 724 mmHg 79%
    14:00 +6°C° 0.1 mm 1 mps 724 mmHg 81%
    15:00 +6°C° 0.1 mm 1 mps 724 mmHg 83%
    16:00 +5°C° 0.1 mm 1 mps 724 mmHg 85%
    17:00 +5°C° 0 mm 1 mps 724 mmHg 86%
    18:00 +4°C° 0 mm 1 mps 724 mmHg 87%
    19:00 +3°C° 0 mm 1 mps 724 mmHg 88%
    20:00 +3°C° 0 mm 1 mps 724 mmHg 88%
    21:00 +4°C° 0 mm 1 mps 724 mmHg 87%
    22:00 +4°C° 0 mm 1 mps 724 mmHg 86%
    23:00 +4°C° 0.1 mm 1 mps 724 mmHg 86%

    Day after tomorrow, 14 December, Friday

    Time Temperature Precipitation Wind Pressure Humidity
    00:00 +4°C° 0.1 mm 1 mps 724 mmHg 86%
    01:00 +5°C° 0.1 mm 1 mps 724 mmHg 86%
    02:00 +5°C° 0.4 mm 1 mps 724 mmHg 87%
    03:00 +5°C° 0.4 mm 1 mps 724 mmHg 88%
    04:00 +4°C° 0.4 mm 2 mps 724 mmHg 90%
    05:00 +4°C° 0.4 mm 2 mps 724 mmHg 91%
    06:00 +4°C° 0.4 mm 2 mps 724 mmHg 91%
    07:00 +5°C° 0.4 mm 2 mps 724 mmHg 92%
    08:00 +5°C° 0.6 mm 2 mps 724 mmHg 92%
    09:00 +6°C° 0.6 mm 2 mps 724 mmHg 92%
    10:00 +6°C° 0.6 mm 2 mps 725 mmHg 92%
    11:00 +6°C° 1.2 mm 2 mps 725 mmHg 92%
    12:00 +5°C° 1.2 mm 3 mps 725 mmHg 93%
    13:00 +5°C° 1.2 mm 3 mps 725 mmHg 93%
    14:00 +5°C° 1.3 mm 3 mps 725 mmHg 93%
    15:00 +5°C° 1.3 mm 3 mps 725 mmHg 93%
    16:00 +5°C° 1.3 mm 3 mps 725 mmHg 93%
    17:00 +5°C° 0.8 mm 3 mps 725 mmHg 92%
    18:00 +4°C° 0.8 mm 3 mps 725 mmHg 92%
    19:00 +4°C° 0.8 mm 3 mps 726 mmHg 91%
    20:00 +4°C° 0.5 mm 3 mps 726 mmHg 91%
    21:00 +4°C° 0.5 mm 3 mps 726 mmHg 91%
    22:00 +4°C° 0.5 mm 3 mps 726 mmHg 90%
    23:00 +4°C° 0.6 mm 3 mps 726 mmHg 90%

    15 December, Saturday

    Time Temperature Precipitation Wind Pressure Humidity
    00:00 +4°C° 0.6 mm 3 mps 727 mmHg 90%
    01:00 +4°C° 0.6 mm 3 mps 727 mmHg 90%
    02:00 +3°C° 0.3 mm 3 mps 727 mmHg 90%
    03:00 +3°C° 0.3 mm 3 mps 727 mmHg 90%
    04:00 +3°C° 0.3 mm 3 mps 727 mmHg 90%
    05:00 +3°C° 0.2 mm 3 mps 727 mmHg 90%
    06:00 +3°C° 0.2 mm 3 mps 727 mmHg 90%
    07:00 +2°C° 0.2 mm 3 mps 727 mmHg 90%
    08:00 +3°C° 0 mm 3 mps 728 mmHg 88%
    09:00 +3°C° 0 mm 4 mps 728 mmHg 86%
    10:00 +3°C° 0 mm 4 mps 728 mmHg 83%
    11:00 +3°C° 0 mm 4 mps 728 mmHg 81%
    12:00 +4°C° 0 mm 4 mps 728 mmHg 79%
    13:00 +3°C° 0 mm 5 mps 729 mmHg 76%
    14:00 +4°C° 0 mm 4 mps 729 mmHg 77%
    15:00 +3°C° 0 mm 4 mps 728 mmHg 78%
    16:00 +3°C° 0 mm 4 mps 728 mmHg 78%
    17:00 +1°C° 0 mm 4 mps 729 mmHg 80%
    18:00 +1°C° 0 mm 3 mps 729 mmHg 82%
    19:00 +1°C° 0 mm 3 mps 729 mmHg 84%
    20:00 +1°C° 0 mm 3 mps 730 mmHg 85%
    21:00 0°C° 0 mm 3 mps 730 mmHg 85%
    22:00 +1°C° 0 mm 2 mps 730 mmHg 85%
    23:00 +1°C° 0 mm 2 mps 730 mmHg 85%

    16 December, Sunday

    Time Temperature Precipitation Wind Pressure Humidity
    00:00 +1°C° 0 mm 2 mps 730 mmHg 86%
    01:00 -1°C° 0 mm 2 mps 730 mmHg 86%
    02:00 -1°C° 0 mm 2 mps 730 mmHg 85%
    03:00 -1°C° 0 mm 2 mps 730 mmHg 85%
    04:00 -1°C° 0 mm 2 mps 730 mmHg 84%
    05:00 -1°C° 0 mm 2 mps 730 mmHg 83%
    06:00 -1°C° 0 mm 2 mps 730 mmHg 82%
    07:00 +1°C° 0 mm 1 mps 730 mmHg 81%
    08:00 +2°C° 0 mm 1 mps 730 mmHg 76%
    09:00 +3°C° 0 mm 1 mps 730 mmHg 70%
    10:00 +5°C° 0 mm 1 mps 731 mmHg 65%
    11:00 +6°C° 0 mm 1 mps 731 mmHg 63%
    12:00 +7°C° 0 mm 1 mps 731 mmHg 60%
    13:00 +7°C° 0 mm 0 mps 730 mmHg 58%
    14:00 +6°C° 0 mm 0 mps 730 mmHg 60%
    15:00 +5°C° 0 mm 0 mps 730 mmHg 62%
    16:00 +5°C° 0 mm 0 mps 730 mmHg 64%
    17:00 +5°C° 0 mm 1 mps 730 mmHg 66%
    18:00 +5°C° 0 mm 1 mps 730 mmHg 67%
    19:00 +4°C° 0 mm 1 mps 730 mmHg 68%
    20:00 +4°C° 0.2 mm 1 mps 730 mmHg 69%
    21:00 +5°C° 0.2 mm 1 mps 730 mmHg 71%
    22:00 +5°C° 0.2 mm 1 mps 730 mmHg 72%
    23:00 +5°C° 0.3 mm 1 mps 730 mmHg 74%

    17 December, Monday

    Time Temperature Precipitation Wind Pressure Humidity
    00:00 +5°C° 0.3 mm 1 mps 730 mmHg 76%
    01:00 +5°C° 0.3 mm 1 mps 730 mmHg 78%
    02:00 +5°C° 0.6 mm 1 mps 730 mmHg 82%
    03:00 +5°C° 0.6 mm 1 mps 729 mmHg 85%
    04:00 +5°C° 0.6 mm 1 mps 729 mmHg 88%
    05:00 +5°C° 0.5 mm 1 mps 729 mmHg 89%
    06:00 +5°C° 0.5 mm 1 mps 729 mmHg 91%
    07:00 +5°C° 0.5 mm 1 mps 729 mmHg 92%
    08:00 +5°C° 0.5 mm 1 mps 729 mmHg 92%
    09:00 +5°C° 0.5 mm 1 mps 729 mmHg 92%
    10:00 +6°C° 0.5 mm 1 mps 730 mmHg 92%
    11:00 +6°C° 0.3 mm 1 mps 729 mmHg 92%
    12:00 +6°C° 0.3 mm 1 mps 729 mmHg 92%
    13:00 +6°C° 0.3 mm 1 mps 729 mmHg 92%
    14:00 +6°C° 0.3 mm 1 mps 729 mmHg 93%
    15:00 +6°C° 0.3 mm 1 mps 729 mmHg 93%
    16:00 +6°C° 0.3 mm 1 mps 729 mmHg 93%
    17:00 +6°C° 0.4 mm 1 mps 729 mmHg 94%
    18:00 +5°C° 0.4 mm 2 mps 729 mmHg 94%
    19:00 +4°C° 0.4 mm 2 mps 729 mmHg 95%
    20:00 +4°C° 0.6 mm 2 mps 730 mmHg 95%
    21:00 +4°C° 0.6 mm 2 mps 730 mmHg 95%
    22:00 +4°C° 0.6 mm 2 mps 730 mmHg 95%
    23:00 +4°C° 0.3 mm 2 mps 730 mmHg 95%
    Show more